This is the latest recevied weather packets stored in our database for station/object EA2KR-10. If no packets are shown the sender has not sent any weather packets the latest 10 day(s).
| Time | Temp. | Humidity | Pressure | Rain* | Wind** | Luminosity | Snow |
|---|---|---|---|---|---|---|---|
| 1788278608 | 42.22° C | 24% | 1031.2 hPa | - | - | - | - |
| 1788276808 | 42.78° C | 24% | 1030.9 hPa | - | - | - | - |
| 1788275008 | 42.78° C | 26% | 1030.9 hPa | - | - | - | - |
| 1788273207 | 41.67° C | 26% | 1031.3 hPa | - | - | - | - |
| 1788271407 | 41.11° C | 28% | 1031.5 hPa | - | - | - | - |
| 1788269607 | 40° C | 29% | 1031.7 hPa | - | - | - | - |
| 1788267807 | 39.44° C | 31% | 1031.8 hPa | - | - | - | - |
| 1788266007 | 37.78° C | 33% | 1032.1 hPa | - | - | - | - |
| 1788264207 | 36.67° C | 35% | 1032.4 hPa | - | - | - | - |
| 1788262407 | 34.44° C | 37% | 1032.4 hPa | - | - | - | - |
| 1788260607 | 32.22° C | 39% | 1032.6 hPa | - | - | - | - |
| 1788258807 | 30° C | 41% | 1032.8 hPa | - | - | - | - |
| 1788257006 | 27.78° C | 43% | 1032.8 hPa | - | - | - | - |
| 1788255220 | 25.56° C | 44% | 1032.9 hPa | - | - | - | - |
| 1788253406 | 24.44° C | 45% | 1032.8 hPa | - | - | - | - |
| 1788251605 | 23.33° C | 46% | 1032.7 hPa | - | - | - | - |
| 1788249805 | 22.22° C | 46% | 1032.6 hPa | - | - | - | - |
| 1788248005 | 21.67° C | 46% | 1032.6 hPa | - | - | - | - |
| 1788246205 | 21.11° C | 46% | 1032.6 hPa | - | - | - | - |
| 1788244407 | 20.56° C | 46% | 1032.4 hPa | - | - | - | - |
| 1788242607 | 20.56° C | 47% | 1032.3 hPa | - | - | - | - |
| 1788240807 | 20.56° C | 47% | 1032.5 hPa | - | - | - | - |
| 1788239007 | 20.56° C | 46% | 1032.4 hPa | - | - | - | - |
| 1788237207 | 20.56° C | 46% | 1032.6 hPa | - | - | - | - |
| 1788235407 | 20.56° C | 46% | 1032.4 hPa | - | - | - | - |
* Rain since midnight (hover to see other rain measurements)
** Current wind speed in m/s (hover to see current wind gust speed)